STARLINK-11201, 60113

Orbit data source: Space-Track

STARLINK-11201, 60113 is a payload satellite owned by SpaceX/Seattle (US) in LEO that was launched on Mon, 24 Jun 2024 UTC via an FALCON 9 launch vehicle from the Air Force Western Test Range (AFWTR). Payload-class satellites include a variety of spacecraft equipped with specific instruments for various scientific and technological missions. These include communications satellites like Starlink; space stations such as the ISS; scientific satellites like the Hubble; Earth observation satellites from companies like Planet Labs, Umbra, and HawkEye 360; GPS; miniature CubeSats for education and research; and military/defense satellites.

Loading next visibility...
Identifier
60113, 2024-118A
Orbit
LEO
Country
Flag of USUS
Related business
Manufacturer
SpaceX/Seattle
Mission
Operational Commercial Communications
Bus & Motor
STARLINK V2MD, Unknown motor
Mass
960 kg wet, ~910 kg dry
Launch date (UTC)
2024-06-24 (1 year ago)
Launch vehicle
FALCON 9
Launch site
Air Force Western Test Range (AFWTR)
Object type
Payload
Rocket body
Debris
Shape & HBR
Box + 2 Pan, 18.1 m
Radar Cross Section
36.964 m², Large (>1 m²)

Expand to show TLE details & history
Last TLE update: 22 hours ago

TLE from 22 hours ago
0 STARLINK-11201
1 60113U 24118A   25354.13240100 -.00000974  00000-0 -31792-5 0  9996
2 60113  53.1599 253.7662 0001327  94.9322 265.1848 15.69702116 85496
Epoch: 2025-12-20T03:10Z
TLE epoch observation values (Epoch: 2025-12-20T03:10:39.446Z)
Latitude
0.00003°
Longitude
117.13827°
Altitude
360.74 km
Speed
7.694 km/s
True Right ascension
16h 55m 03s
True Declination
0° 00' 00"
Sunlit
Object was in daylight at epoch
Visualization orbit readout
Latitude
Unknown
Longitude
Unknown
Altitude
Unknown
Speed
Unknown
Apparent Right ascension
Unknown
Apparent Declination
Unknown
Sunlit
N/A
Visualization observer readout
Local Sidereal Time
00:29:42
Azimuth
Unknown
Elevation
Unknown
Doppler factor
Unknown
Orbital elements
Apogee altitude
360.904 km
Perigee altitude
359.116 km
Semi-major axis
6,738.147 km
Eccentricity
0.00013
Inclination
53.1599°
RAAN
253.7662°
Arg. of periapsis
94.9322°
True anomaly
265.16965°
Mean anomaly
265.1848°
Eccentric anomaly
265.17722°
Mean motion
3.92403 °/min
Orbital period
91.74 mins
BSTAR
-0.0000031792
Loading maneuver chart data...
Computing Atmospheric mass density...
Loading historical data...
Loading historical data...
Loading historical data...
Loading historical data...
Loading historical data...
Loading historical data...
Loading historical data...

Documentation

Showing up to 5 results
|